Weather History for KARA - March, 2013

Change the Weather History Date:

Monday, March 18, 2013

  Actual Average Record
Temperature  
Mean Temperature 75 °F 62 °F  
Max Temperature 82 °F 73 °F 85 °F (1982)
Min Temperature 68 °F 52 °F 32 °F (1960)
Degree Days  
Heating Degree Days 0 4  
Month to date heating degree days 134 101  
Since 1 July heating degree days 1021 1317  
Cooling Degree Days 10 2  
Month to date cooling degree days 18 21  
Year to date cooling degree days 66 52  
Growing Degree Days 25 (Base 50)    
Moisture  
Dew Point 66 °F    
Average Humidity 73    
Maximum Humidity 90    
Minimum Humidity 55    
Precipitation  
Precipitation 0.00 in 0.09 in 4.55 in (1957)
Month to date precipitation 1.97 2.28  
Year to date precipitation 18.72 11.69  
Sea Level Pressure  
Sea Level Pressure 29.84 in    
Wind  
Wind Speed 10 mph (SSW)    
Max Wind Speed 18 mph    
Max Gust Speed 22 mph    
Visibility 7 miles    
Events      
T = Trace of Precipitation, MM = Missing Value Source: NWS Daily Summary

Daily Weather History Graph

Daily Weather History Graph

Search for Another Location

Airport or City:

Trip Planner

Search our weather history database for the weather conditions in past years. The results will help you decide how hot, cold, wet, or windy it might be!

Date:

Astronomy

Mar. 18, 2013 Rise Set
Actual Time 7:13 AM CDT 7:17 PM CDT
Civil Twilight 6:49 AM CDT 7:41 PM CDT
Nautical Twilight 6:21 AM CDT 8:09 PM CDT
Astronomical Twilight 5:53 AM CDT 8:37 PM CDT
Moon 11:37 AM CDT (3/18) 12:54 AM CDT (3/18)
Length of Visible Light 12h 52m
Length of Day
12h 04m
Waxing Crescent, 41% of the Moon is Illuminated
Mar 18
Waxing Crescent
Mar 19
First Quarter
Mar 27
Full
Apr 2
Last Quarter
Apr 10
New

Hourly Weather History & Observations

Time (CDT) Temp. Heat Index Dew Point Humidity Pressure Visibility Wind Dir Wind Speed Gust Speed Precip Events Conditions
12:53 AM 71.1 °F - 66.9 °F 87% 29.83 in 7.0 mi SSW 11.5 mph 28.8 mph 0.00 in   Overcast
1:53 AM 71.1 °F - 66.9 °F 87% 29.83 in 7.0 mi SSW 12.7 mph - N/A   Overcast
2:53 AM 71.1 °F - 66.9 °F 87% 29.83 in 7.0 mi South 11.5 mph - N/A   Overcast
3:53 AM 71.1 °F - 66.9 °F 87% 29.82 in 6.0 mi South 10.4 mph - N/A   Overcast
4:53 AM 70.0 °F - 66.9 °F 90% 29.81 in 6.0 mi South 11.5 mph - N/A   Overcast
5:53 AM 70.0 °F - 66.9 °F 90% 29.82 in 7.0 mi South 8.1 mph - N/A   Overcast
6:53 AM 70.0 °F - 66.0 °F 87% 29.81 in 6.0 mi South 10.4 mph - N/A   Overcast
7:14 AM 69.8 °F - 66.2 °F 88% 29.85 in 7.0 mi SW 5.8 mph - N/A   Overcast
7:53 AM 70.0 °F - 66.9 °F 90% 29.87 in 6.0 mi SW 6.9 mph - N/A   Overcast
8:53 AM 72.0 °F - 66.9 °F 84% 29.88 in 7.0 mi WSW 5.8 mph - N/A   Overcast
9:53 AM 73.9 °F - 66.9 °F 79% 29.88 in 9.0 mi SSW 12.7 mph - N/A   Overcast
10:53 AM 78.1 °F - 68.0 °F 71% 29.87 in 10.0 mi SW 12.7 mph - N/A   Scattered Clouds
11:53 AM 78.1 °F - 64.9 °F 64% 29.86 in 10.0 mi SW 13.8 mph - N/A   Scattered Clouds
12:53 PM 81.0 °F 82.7 °F 64.9 °F 58% 29.85 in 10.0 mi SSW 10.4 mph 19.6 mph N/A   Mostly Cloudy
1:53 PM 81.0 °F 83.0 °F 66.0 °F 60% 29.83 in 10.0 mi South 13.8 mph 19.6 mph N/A   Mostly Cloudy
2:53 PM 82.0 °F 83.8 °F 64.9 °F 56% 29.80 in 10.0 mi SSW 15.0 mph 20.7 mph N/A   Scattered Clouds
3:53 PM 82.0 °F 83.8 °F 64.9 °F 56% 29.79 in 10.0 mi South 16.1 mph 20.7 mph N/A   Scattered Clouds
4:53 PM 80.1 °F 81.9 °F 64.9 °F 60% 29.78 in 10.0 mi South 13.8 mph - N/A   Scattered Clouds
5:53 PM 78.1 °F - 64.0 °F 62% 29.78 in 10.0 mi SSW 11.5 mph - N/A   Clear
6:53 PM 73.9 °F - 64.0 °F 71% 29.79 in 10.0 mi SSW 11.5 mph - N/A   Clear
7:53 PM 71.1 °F - 64.9 °F 81% 29.80 in 9.0 mi SSW 8.1 mph - N/A   Clear
8:53 PM 69.1 °F - 66.0 °F 90% 29.83 in 5.0 mi SW 5.8 mph - N/A   Clear
9:53 PM 69.1 °F - 64.9 °F 87% 29.86 in 4.0 mi SW 4.6 mph - N/A   Clear
10:53 PM 68.0 °F - 64.9 °F 90% 29.89 in 3.0 mi WSW 3.5 mph - N/A   Partly Cloudy
11:00 PM 69.8 °F - 64.4 °F 83% 29.90 in 3.0 mi West 3.5 mph - N/A   Mostly Cloudy
11:44 PM 69.8 °F - 66.2 °F 88% 29.92 in 5.0 mi North 3.5 mph - N/A   Overcast
11:53 PM 70.0 °F - 66.9 °F 90% 29.92 in 5.0 mi NNW 3.5 mph - N/A   Overcast